Regional Weather Roundup
Issued by NWS

Home | Current Version | Previous Version | Graphics & Text | Print | Product List | Glossary On
Versions: 1 2 3 4 5 6 7 8 9 10 11 12 13 14 15 16 17 18 19 20 21 22 23 24 25 26 27 28 29 30 31 32 33 34 35 36 37 38 39 40 41 42 43 44 45 46 47 48 49 50
195
ASUS43 KLOT 250007
RWRIL

ILLINOIS REGIONAL WEATHER ROUNDUP
NATIONAL WEATHER SERVICE CHICAGO/ROMEOVILLE IL
700 PM CDT FRI MAR 24 2017

NOTE: "FAIR" INDICATES FEW OR NO CLOUDS BELOW 12,000 FEET WITH NO
SIGNIFICANT WEATHER AND/OR OBSTRUCTIONS TO VISIBILITY.

* THESE STATIONS ARE NOT UNDER NWS QUALITY CONTROL. THEY ALSO MAY NOT
  REPORT WEATHER SUCH AS PRECIPITATION OR FOG.

ILZ001-002-007-009-015-016-024-250100-
NORTHWEST ILLINOIS

CITY           SKY/WX    TMP DP  RH WIND       PRES   REMARKS
MOLINE         LGT RAIN  59  52  77 W9        29.97R
6HR MIN TEMP:  59; 6HR MAX TEMP:  78; 6HR PCP:  0.01;

STERLING*      LGT RAIN  65  51  60 N8        29.94R
SAVANNA*       LGT RAIN  58  53  84 N5        29.94R
$$

ILZ003-004-008-010-011-017-018-250100-
NORTH CENTRAL ILLINOIS

CITY           SKY/WX    TMP DP  RH WIND       PRES   REMARKS
ROCKFORD       CLOUDY    59  47  64 NE16      29.98R
6HR MIN TEMP:  59; 6HR MAX TEMP:  80;

FREEPORT*      LGT RAIN  56  50  80 NE13      29.97S
ROCHELLE*      CLOUDY    66  48  51 N12       29.94R
DE KALB*       CLOUDY    68  44  41 N15G21    29.95R
PERU*          CLOUDY    67  46  46 NW3       29.94R
$$

ILZ005-006-012>014-019>023-250100-
NORTHEAST ILLINOIS

CITY           SKY/WX    TMP DP  RH WIND       PRES   REMARKS
CHICAGO-OHARE  CLOUDY    46  36  68 NE21G29   30.00R
6HR MIN TEMP:  46; 6HR MAX TEMP:  82;

CHICAGO-MIDWAY LGT RAIN  48  39  71 N22G31    29.99R
6HR MIN TEMP:  48; 6HR MAX TEMP:  82; 6HR PCP: TRACE;

AURORA         CLOUDY    68  44  42 CALM      29.93S
6HR MIN TEMP:  68; 6HR MAX TEMP:  82;

LANSING*       CLOUDY    60  46  57 N14G22    29.98R
JOLIET*        LGT RAIN  73  56  56 SW6       29.94R
WAUKEGAN       CLOUDY    40  36  86 N12       30.01R FOG
6HR MIN TEMP:  40; 6HR MAX TEMP:  80;

DUPAGE AIRPORT CLOUDY    54  44  69 NE18      29.95R
6HR MIN TEMP:  54; 6HR MAX TEMP:  81;

KANKAKEE*      PTCLDY    70  54  57 S13G20    29.97R
WHEELING       CLOUDY    44  38  79 N12G24    30.02R
6HR MIN TEMP:  44; 6HR MAX TEMP:  80;

MORRIS*        TSTM      64  59  85 W18       29.95R
ROMEOVILLE*    CLOUDY    71  51  50 S6        29.93S
NORTHERLY ISL    N/A     41  36  82 N15         N/A
$$

LMZ740>746-250100-
SOUTHERN LAKE MICHIGAN

STATION/POSITION SKY/WX   TEMP    WIND        PRES    VSBY  WAVE
                          AIR SEA DIR/SP/G                  HT/PER
                          (F)     (DEG/KT/KT) (MB)    (MI)  (FT/S)
HARRISON CRIB                     350/ 21/ 23   N/A
BURNHAM HARBOR                    340/ 18/ 26   N/A
CALUMET HARBOR                    340/ 19/ 26 1015.4R
BURNS HARBOR               42     340/ 16/ 23 1015.2R
MICHIGAN CITY              72     200/ 19/ 21   N/A
$$

ILZ025>027-034>036-040-047-049-050-058-095>099-250100-
WEST-CENTRAL ILLINOIS

CITY           SKY/WX    TMP DP  RH WIND       PRES   REMARKS
QUINCY         CLOUDY    58  56  93 NW3       29.95R
GALESBURG*     RAIN      58  54  85 W10       29.99R
MACOMB*        LGT RAIN  58  56  94 W8        29.99S
JACKSONVILLE*  CLOUDY    64  52  64 N7        29.95R
PITTSFIELD*    CLOUDY    62  55  78 N3        29.96R
$$

ILZ028>032-037-038-041>044-048-051>054-059>061-250100-
CENTRAL ILLINOIS

CITY           SKY/WX    TMP DP  RH WIND       PRES   REMARKS
PONTIAC        CLOUDY    72  56  58 S14       29.95R
BLOOMINGTON    CLOUDY    69  56  62 S16       29.97R
DECATUR        CLOUDY    70  55  59 S15G25    29.98R
PEORIA         CLOUDY    68  49  50 W15       29.97R
6HR MIN TEMP:  68; 6HR MAX TEMP:  80;

LACON*         CLOUDY    69  46  42 W6        29.93R
LINCOLN*       CLOUDY    73  53  48 S3        29.95R
SPRINGFIELD    CLOUDY    75  50  41 S16G23    29.95R
6HR MIN TEMP:  75; 6HR MAX TEMP:  80;

TAYLORVILLE    PTCLDY    70  55  60 S18G24    29.97S
$$

ILZ033-039-045-046-055>057-062-063-250100-
EAST-CENTRAL ILLINOIS

CITY           SKY/WX    TMP DP  RH WIND       PRES   REMARKS
CHAMPAIGN      MOCLDY    70  54  56 S21       29.99R
RANTOUL*       PTCLDY    72  57  60 S17       29.99R
MATTOON        CLOUDY    69  57  65 S10       30.01R
PARIS*         CLOUDY    69  56  65 S14       30.04R
$$

ILZ079-100>102-250100-
SOUTHWEST ILLINOIS

CITY           SKY/WX    TMP DP  RH WIND       PRES   REMARKS
ALTON          CLOUDY    70  54  56 S12G18    29.97S
BELLEVILLE     CLOUDY    70  57  63 S10       29.97R
CAHOKIA*       CLOUDY    73  53  49 S9        29.96R
SPARTA*        CLOUDY    71  57  62 S10G16    30.01R
$$

ILZ064>066-069>071-074>076-080>082-084>086-088>090-092>094-250100-
SOUTH-CENTRAL ILLINOIS

CITY           SKY/WX    TMP DP  RH WIND       PRES   REMARKS
CARBONDALE     CLOUDY    69  57  65 S10       30.02R
6HR MIN TEMP:  69; 6HR MAX TEMP:  74;

CAIRO*         CLOUDY    69  56  64 SE9       30.02R
EFFINGHAM*     CLOUDY    70  57  63 SE5       30.03S
MARION         MOCLDY    70  57  64 S9        30.05R
MT. VERNON     CLOUDY    70  57  63 S8        30.04R
CENTRALIA*     CLOUDY    70  59  68 S10G16    30.02R
SALEM*         CLOUDY    72  56  58 S12G17    30.01S
METROPOLIS*    CLOUDY    71  56  59 S8        30.04R
$$

ILZ067-068-072-073-078-083-087-091-250100-
SOUTHEAST ILLINOIS

CITY           SKY/WX    TMP DP  RH WIND       PRES   REMARKS
LAWRENCEVILLE  CLOUDY    68  55  63 S10       30.05S
FLORA*         CLOUDY    69  57  63 S7        30.04R
FAIRFIELD*     CLOUDY    68  57  67 S3        30.03R
HARRISBURG*    MOCLDY    70  56  61 S10       30.04R
ROBINSON*      CLOUDY    68  55  63 S7        30.05S
CARMI*         CLOUDY    67  55  66 S12       30.04R
$$

ABBREVIATIONS USED IN REMARKS
   TC - TEMPERATURE IN CELSIUS
  WCI - WIND CHILL INDEX
   HX - HEAT INDEX
  VSB - VISIBILITY
$$





USA.gov is the U.S. government's official web portal to all federal, state and local government web resources and services.